Simultaneous Nadir Overpasses (SNOs) Predictions

Prediction of SNOs between METOP-A and NOAA-19 Satellite Orbit:

Table of predicted SNOs for the next 14.0 days since TLE Epoch: 5/27/2017
Index Date (METOP-A) Time (METOP-A) Lat,Lon (METOP-A) SZA (METOP-A ) Date (NOAA-19) Time (NOAA-19) Lat,Lon (NOAA-19) SZA (NOAA-19 ) Distance(km) Time Diff (sec)
1 05/29/2017 01:11:13 -77.24, -13.45 124.40 05/29/2017 01:10:10 -77.27, -13.49 124.38 2.75 63
2 05/29/2017 02:01:53 77.26, 153.94 55.62 05/29/2017 02:01:06 77.25, 153.87 55.60 2.10 47
3 05/29/2017 02:52:35 -77.22, -38.88 124.43 05/29/2017 02:52:11 -77.24, -38.88 124.41 2.02 24
4 05/29/2017 03:43:15 77.24, 128.52 55.59 05/29/2017 03:43:07 77.22, 128.49 55.57 2.06 8
5 05/29/2017 04:33:57 -77.21, -64.30 124.46 05/29/2017 04:34:12 -77.22, -64.26 124.45 1.63 15
6 05/29/2017 05:24:37 77.22, 103.10 55.55 05/29/2017 05:25:08 77.20, 103.10 55.53 2.54 31
7 05/29/2017 06:15:19 -77.19, -89.72 124.49 05/29/2017 06:16:13 -77.19, -89.65 124.48 1.82 54
8 05/29/2017 07:05:59 77.20, 77.67 55.52 05/29/2017 07:07:09 77.17, 77.71 55.50 3.32 70
9 06/08/2017 18:48:20 77.41, -97.04 54.49 06/08/2017 18:47:08 77.43, -98.17 54.48 27.29 72
10 06/08/2017 19:39:04 -77.30, 69.78 125.64 06/08/2017 19:38:08 -77.28, 69.76 125.66 1.74 56
11 06/08/2017 20:29:45 77.26,-123.03 54.32 06/08/2017 20:29:06 77.28,-122.97 54.34 2.35 39
12 06/08/2017 21:20:26 -77.28, 44.36 125.67 06/08/2017 21:20:09 -77.26, 44.37 125.69 2.17 17
13 06/08/2017 22:11:07 77.24,-148.46 54.30 06/08/2017 22:11:07 77.25,-148.35 54.31 2.77 0
14 06/08/2017 23:01:48 -77.26, 18.93 125.69 06/08/2017 23:02:10 -77.23, 18.98 125.72 2.89 22
15 06/08/2017 23:52:29 77.22,-173.88 54.27 06/08/2017 23:53:08 77.23,-173.74 54.28 3.46 39
16 06/09/2017 00:43:10 -77.24, -6.49 125.72 06/09/2017 00:44:12 -77.25, -6.61 125.71 3.19 62
17 06/09/2017 01:33:55 77.03, 159.97 54.06 06/09/2017 01:35:05 77.04, 161.63 54.10 41.44 70




NCC Satellite Simultaneous Nadir Overpasses (SNOs) Prediction Service
